When you browse on this site, cookies collect data to enhance your experience and personalize the content and advertising you see.
Visit our Privacy Policy to learn more. By continuing to use the site, you agree to this use of cookies and data.
  • In Romania
  • List of Countries
  • For 7 days
  • Water Temperature
  • Weather Map
  • Weather Widgets
  • user-avatar
    Login

    Hourly Weather Bissau

    Today, 19 November, Tuesday

    Time Temperature Precipitation Wind Pressure Humidity
    00:00 +28°C° 0 mm 3 mps 757 mmHg 59%
    01:00 +27°C° 0 mm 3 mps 757 mmHg 58%
    02:00 +27°C° 0 mm 3 mps 756 mmHg 57%
    03:00 +26°C° 0 mm 3 mps 756 mmHg 55%
    04:00 +26°C° 0 mm 2 mps 756 mmHg 53%
    05:00 +25°C° 0 mm 2 mps 756 mmHg 52%
    06:00 +27°C° 0 mm 2 mps 757 mmHg 47%
    07:00 +28°C° 0 mm 2 mps 757 mmHg 42%
    08:00 +30°C° 0 mm 2 mps 758 mmHg 37%
    09:00 +32°C° 0 mm 2 mps 757 mmHg 31%
    10:00 +36°C° 0 mm 2 mps 757 mmHg 25%
    11:00 +38°C° 0 mm 2 mps 757 mmHg 19%
    12:00 +39°C° 0 mm 2 mps 756 mmHg 19%
    13:00 +40°C° 0 mm 2 mps 755 mmHg 19%
    14:00 +40°C° 0 mm 2 mps 755 mmHg 18%
    15:00 +38°C° 0 mm 2 mps 755 mmHg 24%
    16:00 +37°C° 0 mm 3 mps 755 mmHg 29%
    17:00 +35°C° 0 mm 4 mps 755 mmHg 34%
    18:00 +33°C° 0 mm 3 mps 756 mmHg 41%
    19:00 +30°C° 0 mm 3 mps 757 mmHg 48%
    20:00 +28°C° 0 mm 3 mps 757 mmHg 55%
    21:00 +28°C° 0 mm 2 mps 757 mmHg 54%
    22:00 +28°C° 0 mm 2 mps 757 mmHg 53%
    23:00 +28°C° 0 mm 1 mps 757 mmHg 51%

    Tomorrow, 20 November, Wednesday

    Time Temperature Precipitation Wind Pressure Humidity
    00:00 +27°C° 0 mm 1 mps 757 mmHg 49%
    01:00 +27°C° 0 mm 2 mps 757 mmHg 47%
    02:00 +26°C° 0 mm 2 mps 756 mmHg 44%
    03:00 +26°C° 0 mm 2 mps 756 mmHg 43%
    04:00 +25°C° 0 mm 3 mps 756 mmHg 42%
    05:00 +25°C° 0 mm 3 mps 756 mmHg 41%
    06:00 +26°C° 0 mm 3 mps 757 mmHg 41%
    07:00 +27°C° 0 mm 3 mps 757 mmHg 41%
    08:00 +28°C° 0 mm 3 mps 758 mmHg 41%
    09:00 +31°C° 0 mm 3 mps 757 mmHg 37%
    10:00 +35°C° 0 mm 3 mps 757 mmHg 32%
    11:00 +37°C° 0 mm 3 mps 757 mmHg 28%
    12:00 +38°C° 0 mm 3 mps 756 mmHg 26%
    13:00 +39°C° 0 mm 3 mps 756 mmHg 25%
    14:00 +40°C° 0 mm 3 mps 755 mmHg 23%
    15:00 +38°C° 0 mm 3 mps 755 mmHg 33%
    16:00 +35°C° 0 mm 4 mps 755 mmHg 43%
    17:00 +33°C° 0 mm 4 mps 755 mmHg 53%
    18:00 +32°C° 0 mm 4 mps 756 mmHg 60%
    19:00 +30°C° 0 mm 4 mps 757 mmHg 68%
    20:00 +28°C° 0 mm 4 mps 757 mmHg 75%
    21:00 +28°C° 0 mm 3 mps 757 mmHg 78%
    22:00 +27°C° 0 mm 3 mps 757 mmHg 80%
    23:00 +27°C° 0 mm 3 mps 757 mmHg 83%

    Day after tomorrow, 21 November, Thursday

    Time Temperature Precipitation Wind Pressure Humidity
    00:00 +27°C° 0 mm 2 mps 757 mmHg 81%
    01:00 +26°C° 0 mm 2 mps 757 mmHg 80%
    02:00 +26°C° 0 mm 2 mps 757 mmHg 78%
    03:00 +26°C° 0 mm 1 mps 757 mmHg 76%
    04:00 +25°C° 0 mm 1 mps 757 mmHg 74%
    05:00 +25°C° 0 mm 1 mps 757 mmHg 72%
    06:00 +26°C° 0 mm 1 mps 757 mmHg 67%
    07:00 +28°C° 0 mm 1 mps 758 mmHg 62%
    08:00 +29°C° 0 mm 1 mps 758 mmHg 57%
    09:00 +32°C° 0 mm 1 mps 758 mmHg 48%
    10:00 +34°C° 0 mm 1 mps 758 mmHg 40%
    11:00 +37°C° 0 mm 1 mps 757 mmHg 32%
    12:00 +38°C° 0 mm 2 mps 757 mmHg 31%
    13:00 +39°C° 0 mm 2 mps 756 mmHg 30%
    14:00 +39°C° 0 mm 3 mps 756 mmHg 29%
    15:00 +37°C° 0 mm 4 mps 756 mmHg 38%
    16:00 +35°C° 0 mm 4 mps 755 mmHg 46%
    17:00 +33°C° 0 mm 4 mps 755 mmHg 54%
    18:00 +30°C° 0 mm 4 mps 756 mmHg 61%
    19:00 +29°C° 0 mm 4 mps 756 mmHg 68%
    20:00 +28°C° 0 mm 4 mps 757 mmHg 74%
    21:00 +28°C° 0 mm 4 mps 757 mmHg 75%
    22:00 +27°C° 0 mm 4 mps 757 mmHg 75%
    23:00 +27°C° 0 mm 4 mps 757 mmHg 75%

    22 November, Friday

    Time Temperature Precipitation Wind Pressure Humidity
    00:00 +26°C° 0 mm 3 mps 757 mmHg 72%
    01:00 +26°C° 0 mm 3 mps 757 mmHg 68%
    02:00 +26°C° 0 mm 3 mps 757 mmHg 65%
    03:00 +25°C° 0 mm 2 mps 757 mmHg 65%
    04:00 +25°C° 0 mm 2 mps 757 mmHg 64%
    05:00 +24°C° 0 mm 2 mps 757 mmHg 63%
    06:00 +26°C° 0 mm 1 mps 757 mmHg 58%
    07:00 +27°C° 0 mm 1 mps 758 mmHg 54%
    08:00 +29°C° 0 mm 1 mps 758 mmHg 49%
    09:00 +31°C° 0 mm 1 mps 758 mmHg 42%
    10:00 +34°C° 0 mm 1 mps 758 mmHg 36%
    11:00 +36°C° 0 mm 1 mps 758 mmHg 29%
    12:00 +38°C° 0 mm 2 mps 757 mmHg 28%
    13:00 +38°C° 0 mm 3 mps 756 mmHg 27%
    14:00 +40°C° 0 mm 4 mps 756 mmHg 27%
    15:00 +37°C° 0 mm 4 mps 756 mmHg 38%
    16:00 +34°C° 0 mm 4 mps 755 mmHg 49%
    17:00 +32°C° 0 mm 5 mps 755 mmHg 60%
    18:00 +30°C° 0 mm 4 mps 756 mmHg 64%
    19:00 +29°C° 0 mm 4 mps 756 mmHg 69%
    20:00 +28°C° 0 mm 4 mps 757 mmHg 74%
    21:00 +27°C° 0 mm 3 mps 757 mmHg 75%
    22:00 +27°C° 0 mm 3 mps 757 mmHg 76%
    23:00 +26°C° 0 mm 3 mps 757 mmHg 77%

    23 November, Saturday

    Time Temperature Precipitation Wind Pressure Humidity
    00:00 +26°C° 0 mm 3 mps 757 mmHg 74%
    01:00 +25°C° 0 mm 3 mps 757 mmHg 72%
    02:00 +25°C° 0 mm 2 mps 757 mmHg 70%
    03:00 +25°C° 0 mm 2 mps 757 mmHg 69%
    04:00 +25°C° 0 mm 2 mps 757 mmHg 69%
    05:00 +24°C° 0 mm 1 mps 757 mmHg 68%
    06:00 +26°C° 0 mm 1 mps 757 mmHg 63%
    07:00 +27°C° 0 mm 1 mps 758 mmHg 58%
    08:00 +29°C° 0 mm 1 mps 758 mmHg 53%
    09:00 +31°C° 0 mm 1 mps 758 mmHg 45%
    10:00 +34°C° 0 mm 1 mps 758 mmHg 38%
    11:00 +37°C° 0 mm 1 mps 757 mmHg 30%
    12:00 +38°C° 0 mm 2 mps 757 mmHg 29%
    13:00 +38°C° 0 mm 3 mps 756 mmHg 29%
    14:00 +39°C° 0 mm 3 mps 755 mmHg 28%
    15:00 +37°C° 0 mm 3 mps 755 mmHg 37%
    16:00 +35°C° 0 mm 4 mps 755 mmHg 46%
    17:00 +33°C° 0 mm 4 mps 755 mmHg 56%
    18:00 +30°C° 0 mm 4 mps 756 mmHg 62%
    19:00 +29°C° 0 mm 4 mps 756 mmHg 68%
    20:00 +27°C° 0 mm 4 mps 757 mmHg 74%
    21:00 +27°C° 0 mm 4 mps 757 mmHg 72%
    22:00 +26°C° 0 mm 3 mps 757 mmHg 70%
    23:00 +26°C° 0 mm 3 mps 757 mmHg 68%

    24 November, Sunday

    Time Temperature Precipitation Wind Pressure Humidity
    00:00 +26°C° 0 mm 3 mps 757 mmHg 68%
    01:00 +25°C° 0 mm 2 mps 757 mmHg 69%
    02:00 +25°C° 0 mm 2 mps 756 mmHg 69%
    03:00 +25°C° 0 mm 1 mps 756 mmHg 70%
    04:00 +25°C° 0 mm 1 mps 756 mmHg 71%
    05:00 +24°C° 0 mm 1 mps 756 mmHg 72%
    06:00 +24°C° 0 mm 0 mps 757 mmHg 68%
    07:00 +26°C° 0 mm 0 mps 757 mmHg 63%
    08:00 +28°C° 0 mm 0 mps 758 mmHg 59%
    09:00 +32°C° 0 mm 1 mps 757 mmHg 49%
    10:00 +35°C° 0 mm 2 mps 757 mmHg 40%
    11:00 +38°C° 0 mm 2 mps 757 mmHg 31%
    12:00 +38°C° 0 mm 3 mps 756 mmHg 29%
    13:00 +39°C° 0 mm 3 mps 756 mmHg 28%
    14:00 +40°C° 0 mm 4 mps 755 mmHg 26%
    15:00 +37°C° 0 mm 4 mps 755 mmHg 35%
    16:00 +35°C° 0 mm 4 mps 755 mmHg 44%
    17:00 +33°C° 0 mm 4 mps 755 mmHg 53%
    18:00 +32°C° 0 mm 4 mps 755 mmHg 61%
    19:00 +29°C° 0 mm 4 mps 756 mmHg 70%
    20:00 +27°C° 0 mm 4 mps 757 mmHg 78%
    21:00 +27°C° 0 mm 4 mps 757 mmHg 81%
    22:00 +27°C° 0 mm 3 mps 757 mmHg 84%
    23:00 +26°C° 0 mm 3 mps 757 mmHg 87%
    Show more